www.pogodaiklimat.ru

Погода и климат >> Архив погоды >> Мексика >> Culiacan


ПОГОДА в Culiacan

  • Прогноз погоды в Culiacan
  • Монитор погоды в Culiacan
  • Климат города

АРХИВ ПОГОДЫ в Culiacan

Время (UTC), дата Ветер
(напр.,м/с)
 
Видим.   Явления Облачность Т
(С)
Тd
(С)
f
(%)
Тe
(С)
Тes
(С)
Комфортность P
(гПа)
Po
(гПа)
Тmin
(С)
Tmax
(С)
R
(мм)
R24
(мм)
S
(см)
21 18.04 ЮЗ 1 16 км ясно +31.4 +16.3 40 +34 +54 опасность
солнечного
удара
1013.9 1009.4
00 19.04 З 1 16 км ясно +31.2 +11.7 30 +32 +35 жарко 1012.2 1007.8 +13.4 +32.8
03 19.04 З 1 16 км ясно +23.4 +13.9 55 +27 +27 душно 1013.8 1009.4
06 19.04 ЮВ 1 16 км ясно +19.8 +13.3 66 +23 +23 комфорт 1014.5 1010.1 +19.4 +32.8
09 19.04 В 1 16 км ясно +18.0 +14.8 82 +19 +19 1013.7 1009.2
12 19.04 В 1 16 км ясно +16.8 +13.9 83 +18 +18 1013.4 1008.9 +16.4 +31.0
18 19.04 ЮЗ 1 16 км ясно +30.0 +19.5 53 +36 +59 опасность
солнечного
удара
1014.8 1010.3 +16.0 +31.0
21 19.04 Ю 2 16 км ясно +32.2 +12.3 30 +33 +50 жарко 1013.2 1008.8
00 20.04 ЮЗ 2 16 км ясно +29.4 +16.1 45 +33 +35 душно 1012.4 1008.0 +16.0 +33.4
03 20.04 ЮВ 1 16 км ясно +23.8 +19.1 75 +29 +29 душно 1014.5 1009.9
06 20.04 В 1 16 км ясно +21.4 +17.8 80 +26 +26 душно 1015.2 1010.8 +16.0 +33.4
09 20.04 В 1 16 км ясно +19.5 +18.8 96 +23 +23 комфорт 1014.4 1010.0
12 20.04 В 1 16 км ясно +18.4 +17.6 95 +20 +20 1014.7 1010.2 +17.6 +33.4
15 20.04 ЮВ 1 16 км ясно +25.4 +19.7 71 +31 +38 очень
душно
1015.8 1011.3
18 20.04 Ю 1 16 км ясно +29.6 +13.8 38 +25 +47 комфорт 1015.4 1010.9 +17.6 +29.8
21 20.04 ЮЗ 1 16 км ясно +32.0 +10.2 26 +32 +52 опасность
солнечного
удара
1011.6 1007.2
00 21.04 ЮЗ 1 16 км ясно +30.6 +19.1 50 +36 +39 очень
душно
1009.5 1005.1 +17.6 +33.2
03 21.04 Ю 1 16 км ясно +25.0 +19.8 73 +31 +31 очень
душно
1010.9 1006.6
06 21.04 В 1 16 км ясно +22.2 +20.5 90 +29 +29 очень
душно
1012.1 1007.7 +17.6 +33.2
12 21.04 В 1 16 км ясно +21.0 +20.7 98 +27 +27 душно 1013.2 1008.7 +20.2 +33.2
18 21.04 Ю 2 16 км ясно +30.2 +18.2 49 +35 +55 опасность
солнечного
удара
1014.0 1009.5 +20.4 +30.4
21 21.04 ЮЗ 2 16 км ясно +30.0 +19.0 52 +35 +53 опасность
солнечного
удара
1011.7 1007.3
00 22.04 Ю 2 16 км ясно +29.8 +19.8 55 +36 +39 очень
душно
1011.0 1006.6 +20.5 +31.2
03 22.04 Ю 1 16 км ясно +24.2 +20.8 81 +30 +30 очень
душно
1012.8 1008.4
06 22.04 СВ 1 16 км ясно +22.2 +21.3 95 +29 +29 очень
душно
1011.7 1007.3 +22.0 +31.2
09 22.04 ЮВ 1 16 км ясно +20.4 +20.4 100 +26 +26 душно 1011.4 1007.0
12 22.04 штиль 0 16 км ясно +21.6 +21.3 98 +28 +28 очень
душно
1011.5 1007.0 +20.3 +29.7
15 22.04 В 1 16 км ясно +25.4 +19.9 72 +31 +38 очень
душно
1013.2 1008.7
18 22.04 ЮЗ 2 16 км ясно +29.6 +19.9 56 +36 +55 опасность
солнечного
удара
1012.4 1007.9 +20.3 +30.2
21 22.04 Ю 2 16 км ясно +31.0 +20.5 54 +38 +55 опасность
солнечного
удара
1010.4 1006.0
00 23.04 Ю 2 16 км ясно +29.2 +19.6 56 +35 +38 очень
душно
1010.4 1006.0 +20.3 +31.4
03 23.04 ЮЗ 1 16 км ясно +23.8 +19.4 76 +29 +29 душно 1011.2 1006.8
06 23.04 ЮВ 1 16 км ясно +22.2 +19.6 85 +28 +28 душно 1012.7 1008.3 +22.0 +31.4
09 23.04 СЗ 1 16 км ясно +21.2 +19.9 92 +26 +26 душно 1011.0 1006.6
12 23.04 В 1 16 км ясно +20.8 +19.6 93 +26 +26 душно 1011.4 1006.9 +20.4 +29.4
18 24.04 штиль 0 16 км ясно +32.2 +18.9 45 +37 +64 опасность
солнечного
удара
1014.8 1010.4 +20.1 +32.6
21 24.04 ЮЗ 1 16 км ясно +31.7 +17.8 44 +36 +56 опасность
солнечного
удара
1013.5 1009.1
00 25.04 ЮЗ 1 16 км ясно +31.0 +20.2 53 +38 +41 очень
душно
1011.6 1007.3 +20.1 +32.6
03 25.04 Ю 1 16 км ясно +23.7 +20.4 82 +29 +29 душно 1012.9 1008.6
06 25.04 В 1 16 км ясно +21.0 +20.1 95 +27 +27 душно 1014.5 1010.0 +20.8 +32.6
09 25.04 В 1 16 км ясно +20.0 +19.9 99 +25 +25 комфорт 1013.7 1009.3
12 25.04 В 1 16 км ясно +19.0 +19.0 100 +22 +22 комфорт 1013.6 1009.1 +18.4 +30.6
15 25.04 В 1 16 км ясно +25.8 +20.0 70 +32 +38 очень
душно
1013.6 1009.1

 

Местоположение метеостанции Culiacan (Мексика): широта 24.80 долгота -107.40 высота над уровнем моря 39 м.

В архиве по умолчанию представлена погода в Culiacan за последнюю неделю. Архивные данные за месяц целиком и за предыдущие месяцы, начиная с января 2011 года, Вы можете получить, выбрав интересующий диапазон дат из раскрывающегося списка и нажав кнопку "Ввод!".

Внимание! Время в таблицах - всемирное. Для получения местного времени необходимо прибавить поправку, которая в Culiacan равна -7 ч.

Смотрите также архив погоды в соседних городах и на ближайших метеорологических станциях:

Погода в Tepehuanes (Мексика) (180 км)
Погода в Colonia Juan Carras-Co (Мексика) (205 км)
Погода в Choix (Мексика) (229 км)
Погода в Durango (Мексика) (296 км)
Погода в Hidalgo del Parral (Мексика) (298 км)
Погода в La Paz (Мексика) (302 км)
Погода в Ciudad Obregon (Мексика) (377 км)
Погода в Sombrerete (Мексика) (407 км)
Погода в Torreon (Мексика) (411 км)
Погода в Loreto (Мексика) (415 км)

Пояснения к столбцам:

Ветер - указаны скорость ветра в м/с - средняя за 10 мин, порывы в срок и между сроками (в фигурных скобках) и направление, откуда дует ветер: С - северный, СВ - северо-восточный, В - восточный, ЮВ - юго-восточный, Ю - южный, ЮЗ - юго-западный, З - западный, СЗ - северо-западный.
Видимость - горизонтальная дальность видимости в метрах или километрах. При видимости от 1 до 10 км при отсутствии осадков обычно наблюдается дымка, при ухудшении видимости до 1 км и менее - туман. В сухую погоду видимость может ухудшаться дымом, пылью или мглою.
Явления - указаны атмосферные явления, наблюдавшиеся в срок или в последний час перед сроком; фигурными скобками обозначены явления, наблюдавшиеся между сроками (за 1-3 часа до срока); квадратными скобками обозначены град или гололедные отложения с указанием их диаметра в мм.
Облачность - указаны через наклонную черту общая и нижняя облачность в баллах и высота нижней границы облаков в метрах; квадратными скобками обозначены формы облаков: Ci - перистые, Cs - перисто-слоистые, Cc - перисто-кучевые, Ac - высококучевые, As - высокослоистые, Sc - слоисто-кучевые, Ns - слоисто-дождевые, Cu - кучевые, Cb - кучево-дождевые. Подробнее классификацию облаков см. в Атласе облаков (PDF).
T - Температура воздуха - температура, измеренная на высоте 2 м над землей.
Td - Температура точки росы - температура, при понижении до которой содержащийся в воздухе водяной пар достигнет насыщения.
f - Относительная влажность воздуха - влажноcть воздуха, измеренная на высоте 2 м над землей.
Te - Эффективная температура - температура, которую ощущает одетый по сезону человек в тени. Характеристика душности погоды. При расчете учитывается влияние влажности воздуха и скорости ветра на теплоощущения человека.
Tes - Эффективная температура на солнце - температура, которую ощущает человек, с поправкой на солнечный нагрев. Характеристика знойности погоды. Зависит от высоты солнца над горизонтом, облачности и скорости ветра. Ночью, в пасмурную погоду, а также при ветре 12 м/с и более поправка равна нулю.
P - Атмосферное давление - приведенное к уровню моря атмосферное давление.
Po - Атмосферное давление - измеренное на уровне метеостанции атмосферное давление.
Tmin - Минимальная температура - минимум температуры воздуха на высоте 2 м над землей.
Tmax - Максимальная температура - максимум температуры воздуха на высоте 2 м над землей.
R - Количество осадков - Количество выпавших осадков за период времени, мм. При наведении курсора мыши на число - период времени, за который выпало указанное количество осадков.
R24 - Количество осадков - Количество выпавших осадков за 24 часа, мм.
S - Снежный покров - Высота снежного покрова, см. При наведении курсора мыши на число - состояние снежного покрова и степень покрытия местности в баллах.